Temp
-0 0 1 1 0 0 1 1 1 2 2 2 3 4 4 4 4 5 5 5 6 6 6 5 5 5 5 5 5 5 6 6 5 5 5 5 5 5 5 5 3 3 2 3
0 0 1 0 0 0 1 1 1 2 2 2 3 4 4 4 4 5 6 6 6 6 6 5 5 5 5 5 5 5 5 5 4 4 4 4 4 5 5 4 4 3 -1 4
0 0 0 0 0 0 1 1 1 2 2 2 3 4 4 4 4 5 6 6 6 6 6 6 6 5 5 5 5 5 5 5 6 5 6 5 4 5 4 4 3 3 4 4
0 0 0 0 0 0 1 0 1 2 2 2 3 4 4 3 4 5 5 5 5 6 6 5 5 5 5 5 5 5 5 5 5 5 5 5 5 4 4 4 3 3 4 3
0 0 0 0 0 0 0 0 1 2 2 3 3 4 4 3 4 5 5 5 5 5 5 5 5 5 5 5 5 5 5 5 5 4 4 4 4 4 4 4 3 3 3 4
-0 0 1 0 0 1 0 0 1 2 3 3 3 4 4 4 3 4 4 4 4 4 5 5 5 4 4 4 4 4 4 4 4 4 4 4 3 5 5 5 5 4 3 3
-0 0 1 1 0 1 1 1 1 2 2 3 3 4 3 3 3 4 4 4 4 4 4 4 4 4 3 4 4 4 4 4 4 3 3 -3 5 5 5 5 4 3 3 2
0 0 1 1 1 1 0 1 1 1 2 3 3 3 3 3 3 4 4 4 4 4 4 4 3 3 3 3 3 3 3 3 3 3 2 3 5 5 5 5 4 3 3 2
-0 0 1 1 1 1 1 1 1 1 2 3 3 3 3 3 3 3 3 3 3 3 3 3 3 3 3 3 3 3 3 2 2 2 1 -5 4 5 4 4 3 3 2 1
0 0 0 1 1 1 1 1 1 1 2 2 2 2 3 3 3 3 3 3 3 3 3 3 3 3 3 3 3 3 3 3 2 1 0 2 3 3 3 1 3 2 2 1
0 0 0 1 1 1 0 1 0 1 2 2 2 2 3 3 3 3 3 3 3 3 2 2 2 2 2 2 2 3 3 3 2 1 -0 1 3 3 2 2 1 1 1 -0
-0 0 0 1 1 0 -0 0 1 1 2 2 2 2 2 3 3 3 3 3 3 2 2 2 2 2 2 3 2 3 2 2 2 2 3 3 2 2 1 1 0 -0 -1 -1
-0 -0 0 0 0 0 -1 -1 1 2 2 2 2 2 2 2 2 2 2 2 2 2 2 2 2 2 2 2 2 2 2 2 1 1 2 2 1 1 0 -0 -1 -1 -2 -2
-0 -0 -0 0 0 0 1 1 1 1 2 2 2 2 2 2 2 2 2 2 2 2 1 1 1 1 1 1 1 1 1 1 1 1 1 1 0 0 -0 -1 -1 -2 -2 -3
-1 -1 0 0 0 1 1 1 1 2 2 2 2 2 1 1 1 1 1 1 1 1 1 1 1 1 1 0 0 1 2 1 0 0 0 -0 -0 -1 -1 -1 -2 -2 -3 -3
-2 -2 -0 0 1 1 1 1 1 1 1 2 1 1 1 1 1 1 1 1 1 1 1 1 1 1 0 -1 -0 1 1 1 0 -0 -0 -1 -1 -1 -2 -2 -3 -4 -4 -4
-0 -0 -0 0 0 1 1 1 1 1 1 1 1 1 1 1 1 1 1 1 1 1 1 0 0 0 -0 -1 -0 1 0 0 -0 -0 -1 -1 -1 -2 -2 -3 -4 -5 -4 -4
-1 -0 -0 0 0 0 1 1 1 1 1 1 1 1 1 1 1 1 1 1 1 1 0 0 0 -0 -1 -1 0 0 0 -0 -0 -1 -1 -1 -2 -2 -3 -4 -5 -5 -5 -6
-1 -1 -1 -0 -0 -0 0 0 0 0 0 0 0 1 1 1 1 1 1 1 0 0 -0 -0 -1 -1 -1 -0 -0 -0 -1 -1 -2 -2 -2 -3 -4 -4 -5 -4 -5 -5 -7 -8
-1 -1 -1 -1 -1 -1 -0 -0 -0 -0 -0 -0 0 0 0 0 1 0 0 -0 -1 -1 -1 -1 -1 -1 -1 -0 -1 -1 -2 -2 -2 -3 -3 -4 -4 -5 -5 -6 -7 -8 -9 -10
-2 -2 -2 -2 -2 -2 -1 -1 -1 -1 -1 -0 0 0 0 0 -0 -1 -1 -1 -1 -2 -1 -2 -2 -2 -1 -1 -2 -2 -3 -3 -4 -4 -6 -6 -5 -6 -7 -8 -9 -10 -11 -11
-3 -3 -3 -3 -4 -3 -3 -2 -2 -2 -1 -1 0 0 0 -1 -1 -2 -2 -2 -2 -2 -3 -3 -3 -3 -3 -3 -4 -4 -4 -4 -5 -7 -6 -7 -8 -8 -9 -10 -11 -11 -11 -10
-3 -4 -4 -4 -3 -3 -3 -3 -2 -1 -1 -1 -1 -1 -1 -1 -2 -3 -3 -3 -3 -4 -5 -5 -5 -4 -5 -6 -6 -6 -7 -7 -7 -7 -8 -9 -10 -11 -11 -11 -11 -10 -10 -10
-4 -4 -4 -3 -3 -4 -4 -3 -2 -2 -2 -2 -2 -2 -3 -3 -3 -4 -4 -4 -5 -6 -6 -6 -6 -7 -7 -8 -7 -8 -7 -8 -8 -9 -10 -11 -11 -10 -10 -10 -10 -10 -10 -10
-4 -4 -4 -4 -3 -3 -3 -3 -4 -4 -4 -4 -4 -4 -5 -4 -5 -5 -5 -5 -6 -6 -7 -7 -8 -8 -8 -8 -8 -9 -9 -9 -10 -10 -10 -10 -10 -10 -10 -11 -11 -11 -11 -11
-4 -4 -4 -4 -4 -4 -4 -4 -4 -5 -5 -5 -5 -5 -5 -5 -5 -5 -5 -6 -7 -7 -6 -7 -8 -8 -9 -9 -9 -10 -10 -10 -10 -10 -10 -11 -11 -11 -11 -11 -11 -11 -11 -11
-5 -6 -5 -5 -5 -5 -5 -5 -5 -5 -5 -6 -5 -6 -5 -6 -6 -6 -7 -7 -6 -7 -8 -8 -9 -9 -10 -10 -10 -10 -11 -10 -10 -11 -11 -11 -11 -11 -12 -11 -12 -12 -12 -12
Height
3005 3015 3023 3032 3039 3046 3054 3058 3064 3070 3076 3082 3084 3088 3093 3095 3096 3099 3102 3105 3107 3109 3111 3113 3115 3118 3120 3121 3122 3124 3125 3127 3128 3131 3131 3132 3132 3132 3133 3133 3135 3135 3135 3129
3000 3011 3019 3027 3034 3043 3050 3055 3061 3067 3073 3077 3081 3087 3092 3094 3096 3098 3101 3104 3106 3108 3110 3113 3115 3117 3119 3119 3120 3122 3124 3125 3127 3130 3132 3130 3129 3130 3130 3130 3131 3131 3132 3126
2996 3006 3015 3024 3032 3041 3049 3055 3059 3065 3069 3074 3079 3084 3090 3092 3094 3097 3100 3103 3105 3107 3108 3110 3112 3115 3116 3117 3118 3120 3121 3122 3123 3124 3124 3125 3126 3126 3127 3127 3128 3126 3123 3122
2992 3002 3011 3021 3030 3038 3045 3050 3054 3059 3063 3070 3076 3083 3088 3091 3093 3095 3098 3101 3103 3105 3107 3109 3111 3113 3114 3115 3116 3117 3119 3120 3121 3121 3121 3122 3122 3123 3123 3123 3123 3122 3119 3118
2989 2999 3009 3018 3027 3034 3042 3048 3052 3056 3063 3069 3074 3080 3084 3088 3091 3094 3097 3100 3102 3104 3106 3109 3110 3111 3112 3113 3114 3115 3116 3117 3118 3118 3119 3119 3119 3119 3119 3118 3117 3115 3115 3114
2987 2996 3007 3015 3023 3033 3039 3046 3051 3057 3062 3065 3071 3075 3082 3087 3090 3094 3096 3098 3100 3102 3105 3106 3107 3109 3109 3110 3111 3112 3114 3115 3116 3116 3116 3116 3115 3112 3113 3112 3110 3111 3110 3112
2986 2995 3004 3013 3021 3031 3038 3044 3050 3054 3058 3062 3068 3075 3080 3085 3089 3092 3094 3096 3098 3101 3102 3104 3106 3107 3108 3109 3109 3111 3111 3113 3114 3113 3113 3114 3106 3106 3107 3105 3105 3105 3105 3105
2985 2994 3003 3012 3021 3029 3037 3043 3048 3052 3057 3062 3066 3072 3077 3082 3087 3090 3092 3094 3097 3099 3101 3103 3104 3106 3107 3107 3107 3108 3109 3110 3111 3111 3108 3104 3103 3102 3102 3100 3102 3101 3101 3101
2985 2993 3002 3011 3019 3027 3035 3042 3047 3051 3056 3059 3064 3069 3074 3079 3083 3088 3090 3093 3095 3097 3099 3102 3102 3104 3104 3104 3104 3104 3105 3106 3108 3107 3106 3103 3098 3098 3098 3097 3094 3096 3097 3097
2986 2994 3001 3010 3018 3027 3035 3041 3045 3050 3053 3056 3062 3067 3071 3076 3081 3085 3088 3090 3093 3095 3097 3099 3100 3101 3102 3102 3101 3102 3103 3102 3102 3101 3100 3095 3095 3095 3095 3096 3097 3093 3093 3093
2988 2995 3002 3009 3017 3026 3033 3039 3043 3048 3051 3056 3061 3066 3071 3075 3079 3082 3086 3089 3090 3093 3095 3097 3097 3097 3098 3097 3098 3099 3100 3100 3098 3096 3096 3093 3090 3091 3093 3092 3089 3089 3089 3087
2989 2995 3002 3010 3017 3024 3030 3035 3042 3047 3051 3056 3060 3065 3069 3073 3077 3081 3082 3086 3087 3089 3091 3093 3094 3094 3093 3093 3094 3094 3096 3095 3094 3094 3091 3089 3087 3088 3087 3087 3086 3084 3082 3080
2990 2997 3003 3011 3018 3025 3031 3034 3042 3046 3050 3054 3059 3063 3067 3071 3074 3077 3080 3082 3084 3086 3088 3089 3089 3090 3090 3089 3088 3089 3090 3089 3086 3087 3087 3086 3084 3083 3082 3080 3079 3077 3075 3074
2993 3000 3005 3012 3020 3027 3033 3037 3040 3045 3049 3052 3057 3061 3065 3068 3071 3074 3077 3079 3080 3082 3083 3084 3084 3085 3085 3084 3085 3086 3087 3084 3082 3081 3082 3079 3079 3077 3075 3073 3072 3070 3068 3067
2995 3001 3007 3014 3021 3026 3031 3036 3040 3044 3050 3050 3055 3058 3062 3066 3069 3071 3073 3075 3077 3078 3079 3079 3080 3080 3080 3079 3079 3079 3081 3080 3078 3074 3075 3072 3071 3069 3068 3066 3064 3062 3061 3059
2998 3003 3009 3015 3020 3026 3031 3035 3040 3043 3046 3050 3053 3057 3059 3063 3066 3068 3070 3071 3072 3073 3074 3074 3073 3075 3076 3073 3072 3075 3074 3073 3071 3068 3067 3065 3063 3061 3059 3057 3056 3055 3054 3052
3000 3006 3011 3017 3022 3027 3031 3036 3039 3041 3045 3048 3051 3054 3057 3060 3062 3064 3066 3067 3068 3069 3069 3068 3069 3069 3069 3066 3067 3068 3067 3065 3063 3060 3058 3057 3055 3052 3051 3050 3048 3047 3045 3043
3002 3008 3013 3018 3022 3027 3031 3034 3037 3040 3043 3047 3050 3052 3055 3057 3059 3061 3062 3062 3063 3062 3062 3063 3062 3062 3062 3059 3062 3060 3059 3057 3056 3054 3052 3050 3048 3046 3044 3042 3041 3040 3038 3036
3003 3008 3013 3017 3022 3026 3029 3033 3035 3038 3044 3044 3047 3050 3053 3054 3056 3057 3057 3057 3056 3056 3056 3057 3058 3054 3054 3055 3055 3053 3052 3050 3048 3046 3045 3043 3042 3040 3038 3036 3034 3033 3032 3031
3003 3009 3013 3017 3021 3025 3028 3031 3034 3036 3038 3041 3044 3047 3049 3052 3052 3052 3054 3052 3051 3049 3051 3050 3047 3045 3048 3048 3047 3046 3044 3042 3040 3039 3038 3037 3035 3034 3032 3031 3030 3029 3028 3028
3002 3007 3012 3017 3020 3024 3027 3028 3030 3032 3034 3037 3040 3043 3044 3045 3046 3047 3048 3047 3046 3044 3044 3045 3038 3039 3041 3040 3040 3039 3037 3036 3034 3033 3032 3032 3031 3030 3028 3027 3026 3026 3026 3025
3001 3006 3010 3014 3018 3021 3024 3024 3026 3028 3031 3032 3035 3037 3038 3039 3041 3042 3042 3042 3042 3039 3037 3037 3032 3033 3034 3034 3033 3032 3032 3031 3029 3029 3028 3027 3026 3026 3025 3025 3025 3025 3024 3022
3001 3005 3009 3012 3015 3015 3016 3018 3020 3023 3024 3027 3030 3032 3033 3034 3037 3038 3039 3037 3035 3033 3031 3029 3028 3027 3028 3029 3027 3026 3026 3026 3026 3025 3024 3024 3023 3023 3023 3023 3023 3021 3019 3016
2999 3002 3005 3008 3007 3007 3009 3014 3016 3019 3021 3023 3025 3027 3029 3030 3032 3032 3032 3031 3030 3027 3026 3024 3023 3024 3024 3024 3024 3024 3023 3023 3023 3022 3022 3023 3023 3022 3021 3020 3018 3015 3013 3010
2996 2999 2999 3000 3002 3004 3007 3009 3012 3015 3017 3019 3021 3023 3026 3026 3027 3026 3026 3025 3023 3021 3019 3020 3021 3021 3021 3021 3021 3021 3021 3022 3022 3022 3022 3022 3021 3019 3017 3015 3012 3010 3007 3004
2993 2993 2995 2997 2999 3002 3004 3006 3008 3011 3012 3015 3018 3019 3020 3021 3021 3021 3019 3019 3017 3016 3018 3018 3019 3019 3019 3020 3020 3021 3021 3021 3021 3020 3019 3018 3016 3014 3012 3010 3007 3003 2999 2995
2987 2990 2992 2995 2998 3000 3002 3004 3006 3008 3011 3012 3014 3015 3016 3016 3016 3016 3015 3014 3015 3015 3015 3017 3018 3018 3018 3018 3019 3019 3019 3018 3017 3016 3015 3013 3011 3008 3006 3003 3000 2995 2991 2985
Wind_Speed
43 42 40 39 37 36 37 37 36 34 32 29 28 28 24 8 8 22 23 16 12 11 18 15 17 13 12 10 11 12 13 9 9 12 9 9 8 8 7 4 4 5 2 7
44 44 43 41 40 37 39 38 36 35 33 32 29 31 23 9 9 18 24 19 12 11 14 16 17 15 12 7 10 11 14 7 8 5 8 11 11 10 10 7 5 8 4 5
45 45 44 43 41 38 38 36 32 35 34 33 31 31 23 9 9 13 18 17 14 9 14 16 11 14 11 10 11 12 14 11 12 15 5 9 13 15 14 12 7 8 17 21
45 46 45 44 42 40 39 36 29 39 37 36 31 29 23 13 11 11 14 13 12 13 14 14 10 10 10 11 11 12 13 12 15 14 11 10 11 13 15 18 18 18 23 23
45 44 45 45 44 42 39 36 30 33 18 34 30 31 30 17 14 13 12 12 13 14 13 12 11 10 11 10 12 13 14 9 12 15 15 14 16 18 20 23 25 26 25 24
42 44 46 45 44 42 39 33 27 29 36 32 31 31 29 23 17 14 9 8 11 16 13 12 11 9 9 8 10 11 12 11 9 8 15 17 19 25 26 28 28 25 23 18
41 42 45 45 43 40 37 32 27 25 30 25 32 27 27 22 18 14 13 12 10 10 10 8 6 6 6 7 7 8 9 10 11 6 6 2 16 18 17 19 24 24 22 20
38 40 43 44 41 39 37 33 27 23 24 20 30 27 29 22 16 13 8 11 11 9 9 9 7 9 9 11 11 11 11 11 8 5 9 17 18 19 17 18 18 20 23 18
35 38 41 41 41 39 36 30 26 23 20 25 28 28 30 26 21 17 13 11 12 11 11 12 9 6 5 5 5 12 15 16 15 11 5 6 9 9 12 17 25 20 17 13
35 36 35 37 38 37 33 28 24 20 19 26 27 23 25 26 21 20 17 16 14 12 13 15 13 11 9 7 7 10 12 13 17 19 12 10 15 17 16 12 13 9 11 19
34 33 33 34 37 40 35 29 21 18 18 28 27 23 21 22 20 19 18 18 18 15 18 17 16 11 13 14 18 16 15 9 11 10 9 11 14 15 15 13 14 19 24 26
33 31 31 36 40 41 38 28 19 17 19 25 26 21 21 18 19 19 17 16 11 12 12 17 15 14 15 17 17 18 15 19 15 13 8 14 20 20 19 22 23 25 27 27
32 31 31 35 36 32 26 11 17 16 17 19 23 23 21 20 18 17 16 16 15 16 16 16 14 15 15 16 16 19 18 18 23 22 23 24 24 24 27 28 28 28 27 29
31 31 31 30 30 28 23 19 17 17 18 17 23 22 22 20 18 18 17 16 15 16 16 17 19 20 18 19 19 17 17 22 25 27 25 26 24 25 26 27 28 29 28 28
30 31 32 30 29 27 24 19 18 18 18 18 19 21 21 20 19 18 18 17 16 18 19 20 19 20 20 23 23 25 22 23 24 27 22 24 25 26 26 28 28 27 26 27
27 28 25 25 24 24 23 21 20 19 20 9 16 18 20 20 19 19 18 18 19 19 18 19 21 22 22 15 21 25 23 22 26 28 27 27 28 28 27 25 23 23 24 26
27 26 25 24 24 23 22 22 20 18 17 15 11 11 17 17 16 17 17 17 18 19 20 22 24 24 25 27 28 26 26 26 27 28 27 27 26 26 25 25 24 23 24 26
24 24 23 22 21 20 19 17 15 17 16 15 10 8 11 14 15 16 16 17 18 21 23 25 26 27 27 30 29 28 27 27 26 26 27 27 27 27 26 26 26 25 30 25
22 21 20 18 18 17 16 15 14 14 15 11 11 12 10 10 11 13 16 19 23 24 26 26 26 29 24 26 29 30 30 30 30 28 27 26 25 24 24 26 27 26 16 11
22 21 19 15 14 13 13 14 14 15 16 16 14 12 13 12 13 15 18 19 17 15 19 19 24 30 27 28 29 29 30 29 28 25 25 24 19 22 24 18 14 12 9 14
25 22 19 17 14 15 13 12 10 11 10 13 17 17 18 19 20 19 14 12 9 10 14 18 17 22 23 24 24 24 23 23 22 20 17 15 18 17 14 11 9 13 17 20
29 26 22 21 16 11 9 8 9 7 9 11 13 16 20 24 22 17 13 15 10 8 13 10 11 20 20 19 17 18 20 20 18 15 14 15 12 8 8 13 17 19 21 24
17 17 15 9 10 13 9 12 9 12 16 14 13 15 17 18 18 13 10 8 10 13 8 9 14 19 17 16 16 12 13 13 14 13 9 5 9 15 18 18 19 22 23 24
22 19 14 12 9 9 16 18 17 17 14 12 11 12 10 13 11 11 6 10 8 6 7 8 13 14 11 11 12 13 12 11 8 6 10 13 15 17 19 23 24 24 25 27
18 14 9 13 14 12 9 11 16 16 17 16 14 13 14 11 8 6 8 6 6 7 8 10 8 13 13 13 13 10 7 7 9 11 11 13 17 21 23 23 24 26 29 32
17 12 10 9 13 14 13 13 14 14 13 10 12 12 6 10 7 8 8 5 6 7 9 8 12 13 11 8 5 4 5 6 10 11 15 19 22 23 23 24 27 31 35 38
7 9 12 9 9 9 10 8 9 9 10 15 11 7 9 5 7 8 9 11 11 10 8 9 14 17 11 4 1 3 7 11 14 18 20 22 23 24 27 30 34 38 40 43
Wind_Direction
190 190 184 183 180 182 182 179 186 188 193 194 201 203 198 209 154 179 186 194 191 194 204 207 205 210 217 214 217 206 204 204 175 202 215 212 214 218 209 198 201 202 221 271
187 186 184 181 182 183 182 181 190 192 195 200 200 202 196 193 157 176 191 195 198 215 209 201 202 211 218 223 212 204 202 197 155 177 223 219 221 223 226 232 218 223 175 257
185 185 183 182 182 182 184 185 188 194 198 204 202 202 196 183 182 176 196 198 209 218 207 198 205 221 222 225 212 205 208 219 213 210 208 204 223 235 237 237 227 238 256 282
183 184 182 184 183 184 186 189 193 198 202 202 203 201 201 194 188 187 193 206 211 209 206 205 203 205 223 226 217 211 214 227 225 233 234 234 236 241 249 251 261 261 286 284
182 182 184 185 184 187 190 194 198 199 200 203 202 202 206 205 203 203 211 208 201 211 223 234 248 262 247 240 224 220 224 233 234 235 240 242 245 248 253 257 261 263 275 281
180 183 186 186 187 189 192 195 200 202 201 198 202 204 206 208 210 214 220 216 214 220 227 242 255 253 234 224 221 225 227 232 234 243 251 258 265 260 261 265 264 264 259 291
181 184 187 188 189 191 194 197 196 196 198 205 200 202 201 206 219 226 233 219 213 209 210 218 221 216 208 210 212 222 236 242 240 256 249 294 261 271 272 264 258 262 266 282
179 184 187 188 189 191 193 198 196 195 201 200 196 198 199 197 197 199 192 213 214 216 209 213 202 212 228 236 242 242 244 246 239 238 232 270 265 275 275 273 271 267 269 269
181 185 186 187 189 191 192 197 198 200 201 202 196 197 198 200 200 198 193 202 206 212 214 219 216 216 214 226 234 240 248 250 243 239 234 224 278 274 266 266 266 274 261 264
179 181 183 186 186 187 184 189 191 186 204 193 187 194 199 202 201 204 206 211 211 220 231 233 229 233 241 243 240 261 260 257 246 249 246 261 277 272 271 249 287 281 246 293
175 176 181 181 181 182 180 185 177 184 186 188 186 190 189 194 200 205 208 210 215 227 225 231 236 249 250 251 256 262 268 258 251 241 238 266 270 268 266 289 297 293 288 298
171 173 175 177 180 186 188 160 170 180 191 189 194 196 199 206 211 213 217 220 221 226 223 235 245 241 247 256 254 264 251 262 261 251 265 283 295 294 292 291 294 297 297 299
167 168 169 176 181 186 201 168 186 187 186 185 192 194 199 199 203 214 223 230 237 240 245 248 248 246 258 256 263 265 272 273 264 274 282 289 291 294 295 297 295 294 293 292
165 167 166 172 175 184 192 199 187 189 190 186 190 196 198 205 216 223 229 239 238 237 239 243 251 256 263 262 264 266 273 278 281 286 294 296 291 290 289 289 287 289 286 283
174 164 164 169 173 180 188 184 186 188 187 195 193 200 207 213 218 225 233 239 238 241 252 258 260 263 267 271 272 275 285 288 288 294 295 291 291 288 286 288 287 287 286 284
159 160 165 168 173 179 182 184 187 189 191 174 191 204 209 216 222 230 240 244 249 255 259 261 263 267 271 270 276 290 293 300 298 297 295 292 290 291 288 287 288 287 289 293
163 167 172 174 179 184 188 191 193 195 197 199 189 199 212 220 226 233 240 246 252 257 260 261 268 273 274 275 281 298 299 297 297 295 294 294 293 290 289 290 289 289 278 271
167 171 174 178 181 186 190 195 197 201 204 205 205 199 205 216 226 235 242 249 254 257 259 265 269 271 273 277 292 294 295 295 294 292 293 292 290 291 292 293 295 277 288 269
169 170 173 175 180 184 188 193 195 194 201 202 212 215 227 225 234 240 247 252 258 260 260 265 269 271 265 278 287 288 289 290 291 292 291 290 291 293 291 291 287 270 261 280
177 178 183 185 191 200 204 211 217 220 220 223 229 234 234 244 248 252 254 259 258 258 265 270 262 265 271 278 282 285 287 289 289 291 291 292 299 296 291 263 255 266 300 321
183 183 188 196 201 213 229 228 220 221 219 234 239 244 250 249 247 248 250 246 256 262 258 254 261 266 275 276 278 282 286 287 289 292 294 296 276 261 247 243 284 328 337 330
195 196 199 207 212 214 221 217 214 214 216 227 242 244 242 246 252 250 254 250 253 247 251 236 256 268 270 274 283 283 283 283 286 287 271 256 236 247 306 338 344 335 319 313
200 205 213 216 221 214 210 200 189 213 230 236 240 238 239 243 241 238 234 235 236 248 240 245 257 271 278 287 291 285 276 268 251 238 227 287 342 349 347 334 319 315 316 317
192 193 195 202 201 203 214 225 234 237 238 239 239 236 231 236 229 223 226 233 236 230 226 231 252 265 251 248 249 238 236 240 257 302 345 347 341 328 318 316 316 315 315 315
199 199 209 219 224 227 228 231 233 239 249 249 239 239 239 241 221 215 219 224 223 224 225 234 238 252 244 229 229 236 263 312 336 343 339 322 310 306 310 311 311 311 311 313
210 206 213 222 220 222 226 223 224 229 233 221 220 224 217 213 209 213 217 222 223 247 258 268 220 218 224 229 247 307 337 352 338 313 300 299 302 304 304 304 307 311 314 316
161 158 172 167 178 191 198 199 208 215 220 209 207 206 210 220 230 219 227 242 266 275 263 217 216 223 208 238 320 306 325 309 292 293 296 299 300 301 302 306 310 313 314 314